Weather History for Wausau, WI

Change the Weather History Date:

Thursday, April 17, 2014

  Actual Average Record
Temperature  
Mean Temperature 37 °F 45 °F  
Max Temperature 41 °F 56 °F 78 °F (1958)
Min Temperature 32 °F 34 °F 17 °F (1983)
Degree Days  
Heating Degree Days 28 20  
Month to date heating degree days 487 407  
Since 1 July heating degree days 8766 7628  
Cooling Degree Days 0 0  
Month to date cooling degree days 0 0  
Year to date cooling degree days 0 0  
Moisture  
Dew Point 31 °F    
Average Humidity 83    
Maximum Humidity 96    
Minimum Humidity 70    
Precipitation  
Precipitation 0.18 in 0.09 in 1.36 in (1976)
Month to date precipitation 2.14 1.43  
Year to date precipitation 5.83 5.13  
Snow  
Snow 1.50 in 0.20 in 2.00 in (1965)
Month to date snowfall 8.4 2.8  
Since 1 July snowfall 84.3 58.1  
Snow Depth 0.00 in    
Sea Level Pressure  
Sea Level Pressure 30.09 in    
Wind  
Wind Speed 10 mph (East)    
Max Wind Speed 22 mph    
Max Gust Speed 29 mph    
Visibility 5 miles    
Events Fog , Rain , Snow    
T = Trace of Precipitation, MM = Missing Value Source: NWS Daily Summary

Daily Weather History Graph

Daily Weather History Graph

Search for Another Location

Airport:

Trip Planner

Search our weather history database for the weather conditions in past years. The results will help you decide how hot, cold, wet, or windy it might be!

Date:

Astronomy

Apr. 17, 2014 Rise Set
Actual Time 6:10 AM CDT 7:46 PM CDT
Civil Twilight 5:39 AM CDT 8:17 PM CDT
Nautical Twilight 5:02 AM CDT 8:54 PM CDT
Astronomical Twilight 4:22 AM CDT 9:35 PM CDT
Moon 10:37 PM CDT (4/17) 7:37 AM CDT (4/17)
Length of Visible Light 14h 37m
Length of Day
13h 36m
Waning Gibbous, 93% of the Moon is Illuminated
Apr 17
Waning Gibbous
Apr 22
Last Quarter
Apr 29
New
May 6
First Quarter
May 14
Full

Hourly Weather History & Observations

Time (CDT) Temp. Windchill Dew Point Humidity Pressure Visibility Wind Dir Wind Speed Gust Speed Precip Events Conditions
12:32 AM 34.0 °F 24.2 °F 30.0 °F 85% 30.06 in 5.0 mi SE 15.0 mph - 0.00 in Snow Light Snow
12:54 AM 33.1 °F 23.9 °F 30.0 °F 89% 30.12 in 2.0 mi ESE 12.7 mph - 0.00 in Snow Light Snow
12:56 AM 33.1 °F 23.4 °F 30.0 °F 89% 30.06 in 1.8 mi ESE 13.8 mph - 0.00 in Snow Light Snow
1:12 AM 33.1 °F 23.0 °F 30.0 °F 89% 30.05 in 2.5 mi ESE 15.0 mph - 0.00 in Snow Light Snow
1:25 AM 33.1 °F 23.4 °F 30.0 °F 89% 30.04 in 3.0 mi ESE 13.8 mph - 0.00 in Snow Light Snow
1:54 AM 33.1 °F 22.6 °F 30.0 °F 89% 30.08 in 2.0 mi ESE 16.1 mph 23.0 mph 0.00 in Snow Light Snow
1:56 AM 33.1 °F 22.6 °F 30.0 °F 89% 30.03 in 1.8 mi ESE 16.1 mph - 0.00 in Snow Light Snow
2:14 AM 32.0 °F 21.6 °F 30.9 °F 96% 30.02 in 0.8 mi East 15.0 mph - 0.00 in Snow Light Snow
2:35 AM 33.1 °F 22.6 °F 30.9 °F 92% 30.00 in 1.2 mi East 16.1 mph - 0.01 in Snow Light Snow
2:43 AM 33.1 °F 22.6 °F 30.9 °F 92% 30.00 in 1.8 mi East 16.1 mph - 0.01 in Snow Light Snow
2:52 AM 33.8 °F 22.5 °F 30.2 °F 87% 29.98 in 2.0 mi East 19.6 mph 27.6 mph 0.01 in Snow Light Snow
2:54 AM 33.1 °F 21.9 °F 30.9 °F 92% 30.04 in 2.0 mi East 18.4 mph 28.8 mph 0.01 in Snow Light Snow
3:03 AM 33.1 °F 21.9 °F 30.9 °F 92% 29.98 in 1.5 mi ESE 18.4 mph 28.8 mph 0.00 in Snow Light Snow
3:10 AM 33.1 °F 22.6 °F 30.9 °F 92% 29.99 in 2.0 mi ESE 16.1 mph 26.5 mph 0.00 in Snow Light Snow
3:19 AM 33.1 °F 23.0 °F 30.9 °F 92% 29.99 in 4.0 mi ESE 15.0 mph 23.0 mph 0.00 in Snow Light Snow
3:27 AM 34.0 °F 24.2 °F 32.0 °F 92% 29.99 in 5.0 mi East 15.0 mph 23.0 mph 0.00 in Snow Light Snow
3:36 AM 34.0 °F 24.2 °F 30.9 °F 89% 29.99 in 7.0 mi ESE 15.0 mph 25.3 mph 0.00 in Rain Light Rain
3:54 AM 34.0 °F 23.4 °F 30.9 °F 89% 30.04 in 8.0 mi ESE 17.3 mph - 0.00 in   Overcast
4:21 AM 34.0 °F 25.0 °F 32.0 °F 92% 29.99 in 8.0 mi East 12.7 mph - N/A   Overcast
4:54 AM 34.0 °F 26.0 °F 32.0 °F 92% 30.04 in 4.0 mi ESE 10.4 mph - 0.00 in Snow Light Snow
5:04 AM 34.0 °F 26.0 °F 32.0 °F 92% 29.99 in 4.0 mi ESE 10.4 mph - 0.00 in Snow Light Snow
5:31 AM 34.0 °F 25.0 °F 32.0 °F 92% 29.99 in 2.5 mi East 12.7 mph - 0.00 in Snow Light Snow
5:34 AM 34.0 °F 26.0 °F 32.0 °F 92% 29.99 in 2.5 mi ESE 10.4 mph - 0.00 in Snow Light Snow
5:42 AM 34.0 °F 26.0 °F 32.0 °F 92% 29.99 in 4.0 mi East 10.4 mph - 0.00 in Snow Light Snow
5:51 AM 33.8 °F 25.8 °F 32.0 °F 93% 29.99 in 2.5 mi East 10.4 mph - 0.01 in Snow Light Snow
5:54 AM 33.1 °F 25.5 °F 32.0 °F 96% 30.04 in 1.5 mi East 9.2 mph - 0.01 in Snow Light Snow
6:38 AM 33.1 °F 26.9 °F 32.0 °F 96% 30.01 in 0.8 mi East 6.9 mph - 0.04 in Snow Light Snow
6:54 AM 33.1 °F 26.1 °F 32.0 °F 96% 30.07 in 0.5 mi East 8.1 mph - 0.05 in Fog , Snow Snow
7:47 AM 33.1 °F 25.5 °F 32.0 °F 96% 30.03 in 0.5 mi East 9.2 mph - 0.05 in Fog , Snow Snow
7:54 AM 33.1 °F 25.5 °F 32.0 °F 96% 30.09 in 0.5 mi East 9.2 mph - 0.05 in Fog , Snow Snow
7:59 AM 33.1 °F 26.1 °F 32.0 °F 96% 30.03 in 1.0 mi ESE 8.1 mph - 0.00 in Snow Light Snow
8:47 AM 33.1 °F 25.5 °F 32.0 °F 96% 30.04 in 3.0 mi East 9.2 mph - 0.01 in Snow Light Snow
8:54 AM 34.0 °F 27.2 °F 32.0 °F 92% 30.09 in 4.0 mi East 8.1 mph - 0.01 in Rain Light Rain
9:54 AM 35.1 °F 27.9 °F 32.0 °F 89% 30.11 in 5.0 mi ESE 9.2 mph - 0.00 in   Overcast
10:51 AM 37.4 °F - 33.8 °F 87% 30.09 in 7.0 mi Calm Calm - N/A   Overcast
11:39 AM 39.9 °F - 33.1 °F 77% 30.10 in 8.0 mi Calm Calm - 0.00 in Rain Light Rain
11:54 AM 39.0 °F 34.0 °F 34.0 °F 82% 30.15 in 8.0 mi NW 6.9 mph - 0.00 in   Overcast
12:54 PM 41.0 °F 33.5 °F 34.0 °F 76% 30.17 in 8.0 mi WNW 13.8 mph - N/A   Overcast
1:36 PM 41.0 °F 33.9 °F 35.1 °F 79% 30.14 in 7.0 mi WNW 12.7 mph - N/A   Overcast
1:54 PM 39.9 °F 32.5 °F 34.0 °F 79% 30.20 in 7.0 mi WNW 12.7 mph - N/A   Overcast
2:54 PM 39.9 °F 32.5 °F 33.1 °F 77% 30.22 in 9.0 mi WNW 12.7 mph - N/A   Overcast
3:02 PM 39.9 °F 32.5 °F 34.0 °F 79% 30.17 in 9.0 mi WNW 12.7 mph - N/A   Overcast
3:54 PM 39.9 °F 32.5 °F 33.1 °F 77% 30.23 in 10.0 mi NW 12.7 mph - N/A   Overcast
4:54 PM 39.0 °F 31.4 °F 32.0 °F 76% 30.25 in 10.0 mi West 12.7 mph - N/A   Overcast
5:54 PM 37.0 °F 28.9 °F 30.9 °F 79% 30.27 in 10.0 mi WNW 12.7 mph - N/A   Overcast
6:54 PM 37.0 °F 30.4 °F 30.0 °F 76% 30.28 in 10.0 mi WNW 9.2 mph - N/A   Overcast
7:54 PM 36.0 °F 31.1 °F 28.9 °F 76% 30.29 in 10.0 mi NNW 5.8 mph - N/A   Overcast
8:54 PM 36.0 °F 30.3 °F 28.0 °F 73% 30.31 in 10.0 mi NNW 6.9 mph - N/A   Overcast
9:54 PM 35.1 °F 28.6 °F 27.0 °F 72% 30.32 in 10.0 mi NW 8.1 mph - N/A   Overcast
10:54 PM 34.0 °F 28.0 °F 27.0 °F 75% 30.32 in 10.0 mi North 6.9 mph - N/A   Overcast
11:54 PM 34.0 °F 28.8 °F 26.1 °F 73% 30.32 in 10.0 mi NNW 5.8 mph - N/A   Overcast